Time,TemperatureF,DewpointF,PressureIn,WindDirection,WindDirectionDegrees,WindSpeedMPH,WindSpeedGustMPH,Humidity,HourlyPrecipIn,Conditions,Clouds,dailyrainin,SoftwareType,DateUTC
2013-06-30 00:02:00,65.7,55.4,30.03,NW,307,0.0,0.0,69,0.00,,,0.00,WUHU216DAVISVP2,2013-06-30 05:02:00,
2013-06-30 00:07:00,65.4,55.5,30.03,NW,307,0.0,0.0,70,0.00,,,0.00,WUHU216DAVISVP2,2013-06-30 05:07:00,
2013-06-30 00:12:00,65.2,55.7,30.04,NW,307,0.0,0.0,71,0.00,,,0.00,WUHU216DAVISVP2,2013-06-30 05:12:00,
2013-06-30 00:17:00,64.9,55.8,30.04,NW,307,0.0,0.0,72,0.00,,,0.00,WUHU216DAVISVP2,2013-06-30 05:17:00,
2013-06-30 00:22:00,64.7,56.0,30.04,NW,307,0.0,0.0,73,0.00,,,0.00,WUHU216DAVISVP2,2013-06-30 05:22:00,
2013-06-30 00:27:00,64.6,55.9,30.04,NW,307,0.0,0.0,73,0.00,,,0.00,WUHU216DAVISVP2,2013-06-30 05:27:00,
2013-06-30 00:32:00,64.4,56.1,30.04,NW,307,0.0,0.0,74,0.00,,,0.00,WUHU216DAVISVP2,2013-06-30 05:32:00,
2013-06-30 00:37:00,64.1,55.8,30.05,NW,307,0.0,0.0,74,0.00,,,0.00,WUHU216DAVISVP2,2013-06-30 05:37:00,
2013-06-30 00:42:00,63.9,55.6,30.05,NW,307,0.0,0.0,74,0.00,,,0.00,WUHU216DAVISVP2,2013-06-30 05:42:00,
2013-06-30 00:47:00,63.8,55.5,30.05,NW,307,0.0,0.0,74,0.00,,,0.00,WUHU216DAVISVP2,2013-06-30 05:47:00,
2013-06-30 00:52:00,63.7,55.6,30.05,NW,307,0.0,0.0,75,0.00,,,0.00,WUHU216DAVISVP2,2013-06-30 05:52:00,
2013-06-30 00:57:00,63.6,55.5,30.05,NW,307,0.0,0.0,75,0.00,,,0.00,WUHU216DAVISVP2,2013-06-30 05:57:00,
2013-06-30 01:02:00,63.6,55.6,30.05,NW,307,0.0,0.0,75,0.00,,,0.00,WUHU216DAVISVP2,2013-06-30 06:02:00,
2013-06-30 01:07:00,63.6,55.3,30.06,NW,307,0.0,0.0,74,0.00,,,0.00,WUHU216DAVISVP2,2013-06-30 06:07:00,
2013-06-30 01:12:00,63.7,55.3,30.06,NW,307,0.0,0.0,74,0.00,,,0.00,WUHU216DAVISVP2,2013-06-30 06:12:00,
2013-06-30 01:17:00,63.7,55.0,30.05,NW,307,0.0,0.0,73,0.00,,,0.00,WUHU216DAVISVP2,2013-06-30 06:17:00,
2013-06-30 01:22:00,63.7,55.4,30.06,NW,307,0.0,0.0,74,0.00,,,0.00,WUHU216DAVISVP2,2013-06-30 06:22:00,
2013-06-30 01:27:00,63.7,55.0,30.06,NW,307,0.0,0.0,73,0.00,,,0.00,WUHU216DAVISVP2,2013-06-30 06:27:00,
2013-06-30 01:32:00,63.7,55.0,30.06,NW,307,0.0,0.0,73,0.00,,,0.00,WUHU216DAVISVP2,2013-06-30 06:32:00,
2013-06-30 01:37:00,63.5,54.8,30.06,NW,307,0.0,0.0,73,0.00,,,0.00,WUHU216DAVISVP2,2013-06-30 06:37:00,
2013-06-30 01:42:00,63.4,54.7,30.06,NW,307,0.0,0.0,73,0.00,,,0.00,WUHU216DAVISVP2,2013-06-30 06:42:00,
2013-06-30 01:47:00,63.4,54.7,30.06,NW,307,0.0,0.0,73,0.00,,,0.00,WUHU216DAVISVP2,2013-06-30 06:47:00,
2013-06-30 01:52:00,63.3,54.6,30.06,WNW,303,0.0,0.0,73,0.00,,,0.00,WUHU216DAVISVP2,2013-06-30 06:52:00,
2013-06-30 01:57:00,63.2,54.5,30.07,NW,304,0.0,1.0,73,0.00,,,0.00,WUHU216DAVISVP2,2013-06-30 06:57:00,
2013-06-30 02:02:00,63.2,54.8,30.07,NW,304,0.0,1.0,74,0.00,,,0.00,WUHU216DAVISVP2,2013-06-30 07:02:00,
2013-06-30 02:07:00,63.1,54.7,30.07,NW,304,0.0,1.0,74,0.00,,,0.00,WUHU216DAVISVP2,2013-06-30 07:07:00,
2013-06-30 02:12:00,63.0,54.2,30.07,NW,304,0.0,0.0,73,0.00,,,0.00,WUHU216DAVISVP2,2013-06-30 07:12:00,
2013-06-30 02:17:00,62.9,54.2,30.07,NW,304,0.0,1.0,73,0.00,,,0.00,WUHU216DAVISVP2,2013-06-30 07:17:00,
2013-06-30 02:22:00,62.8,54.1,30.07,NW,305,0.0,1.0,73,0.00,,,0.00,WUHU216DAVISVP2,2013-06-30 07:22:00,
2013-06-30 02:27:00,62.7,54.0,30.07,NW,305,0.0,1.0,73,0.00,,,0.00,WUHU216DAVISVP2,2013-06-30 07:27:00,
2013-06-30 02:32:00,62.6,54.0,30.07,NW,305,0.0,1.0,73,0.00,,,0.00,WUHU216DAVISVP2,2013-06-30 07:32:00,
2013-06-30 02:37:00,62.5,53.9,30.07,NW,305,0.0,0.0,73,0.00,,,0.00,WUHU216DAVISVP2,2013-06-30 07:37:00,
2013-06-30 02:42:00,62.4,53.8,30.08,NW,304,0.0,0.0,73,0.00,,,0.00,WUHU216DAVISVP2,2013-06-30 07:42:00,
2013-06-30 02:47:00,62.4,53.8,30.08,NW,304,0.0,0.0,73,0.00,,,0.00,WUHU216DAVISVP2,2013-06-30 07:47:00,
2013-06-30 02:52:00,62.2,53.6,30.08,NW,304,0.0,0.0,73,0.00,,,0.00,WUHU216DAVISVP2,2013-06-30 07:52:00,
2013-06-30 02:57:00,62.1,53.8,30.07,NW,304,0.0,0.0,74,0.00,,,0.00,WUHU216DAVISVP2,2013-06-30 07:57:00,
2013-06-30 03:02:00,62.0,53.7,30.08,NW,304,0.0,0.0,74,0.00,,,0.00,WUHU216DAVISVP2,2013-06-30 08:02:00,
2013-06-30 03:07:00,61.8,53.5,30.08,NW,304,0.0,0.0,74,0.00,,,0.00,WUHU216DAVISVP2,2013-06-30 08:07:00,
2013-06-30 03:12:00,61.7,53.8,30.08,NW,304,0.0,0.0,75,0.00,,,0.00,WUHU216DAVISVP2,2013-06-30 08:12:00,
2013-06-30 03:17:00,61.6,53.7,30.08,NW,304,0.0,0.0,75,0.00,,,0.00,WUHU216DAVISVP2,2013-06-30 08:17:00,
2013-06-30 03:22:00,61.5,53.6,30.08,NW,304,0.0,0.0,75,0.00,,,0.00,WUHU216DAVISVP2,2013-06-30 08:22:00,
2013-06-30 03:27:00,61.4,53.5,30.08,NW,304,0.0,0.0,75,0.00,,,0.00,WUHU216DAVISVP2,2013-06-30 08:27:00,
2013-06-30 03:32:00,61.3,53.8,30.08,NW,304,0.0,0.0,76,0.00,,,0.00,WUHU216DAVISVP2,2013-06-30 08:32:00,
2013-06-30 03:37:00,61.3,53.8,30.08,NW,304,0.0,0.0,76,0.00,,,0.00,WUHU216DAVISVP2,2013-06-30 08:37:00,
2013-06-30 03:42:00,61.2,53.7,30.08,NW,304,0.0,0.0,76,0.00,,,0.00,WUHU216DAVISVP2,2013-06-30 08:42:00,
2013-06-30 03:47:00,61.1,53.6,30.08,NW,304,0.0,0.0,76,0.00,,,0.00,WUHU216DAVISVP2,2013-06-30 08:47:00,
2013-06-30 03:52:00,61.1,53.6,30.08,NW,304,0.0,0.0,76,0.00,,,0.00,WUHU216DAVISVP2,2013-06-30 08:52:00,
2013-06-30 03:57:00,61.1,53.6,30.08,NW,304,0.0,0.0,76,0.00,,,0.00,WUHU216DAVISVP2,2013-06-30 08:57:00,
2013-06-30 04:02:00,61.0,53.5,30.08,NW,304,0.0,0.0,76,0.00,,,0.00,WUHU216DAVISVP2,2013-06-30 09:02:00,
2013-06-30 04:07:00,60.8,53.6,30.08,NW,304,0.0,0.0,77,0.00,,,0.00,WUHU216DAVISVP2,2013-06-30 09:07:00,
2013-06-30 04:12:00,60.5,53.3,30.08,NW,304,0.0,0.0,77,0.00,,,0.00,WUHU216DAVISVP2,2013-06-30 09:12:00,
2013-06-30 04:17:00,60.3,53.5,30.08,NW,304,0.0,0.0,78,0.00,,,0.00,WUHU216DAVISVP2,2013-06-30 09:17:00,
2013-06-30 04:22:00,60.1,53.3,30.08,NW,304,0.0,0.0,78,0.00,,,0.00,WUHU216DAVISVP2,2013-06-30 09:22:00,
2013-06-30 04:27:00,60.1,53.3,30.08,NW,304,0.0,0.0,78,0.00,,,0.00,WUHU216DAVISVP2,2013-06-30 09:27:00,
2013-06-30 04:32:00,60.0,53.5,30.08,NW,305,0.0,0.0,79,0.00,,,0.00,WUHU216DAVISVP2,2013-06-30 09:32:00,
2013-06-30 04:37:00,60.1,53.3,30.08,NW,304,0.0,0.0,78,0.00,,,0.00,WUHU216DAVISVP2,2013-06-30 09:37:00,
2013-06-30 04:42:00,60.2,53.4,30.08,NW,305,0.0,0.0,78,0.00,,,0.00,WUHU216DAVISVP2,2013-06-30 09:42:00,
2013-06-30 04:47:00,60.3,53.5,30.08,NW,305,0.0,0.0,78,0.00,,,0.00,WUHU216DAVISVP2,2013-06-30 09:47:00,
2013-06-30 04:52:00,60.3,53.5,30.09,NNW,341,0.0,1.0,78,0.00,,,0.00,WUHU216DAVISVP2,2013-06-30 09:52:00,
2013-06-30 04:57:00,60.2,53.4,30.09,NNW,341,0.0,1.0,78,0.00,,,0.00,WUHU216DAVISVP2,2013-06-30 09:57:00,
2013-06-30 05:02:00,60.2,53.4,30.09,NNW,341,0.0,1.0,78,0.00,,,0.00,WUHU216DAVISVP2,2013-06-30 10:02:00,
2013-06-30 05:07:00,60.0,53.2,30.09,NNW,341,0.0,1.0,78,0.00,,,0.00,WUHU216DAVISVP2,2013-06-30 10:07:00,
2013-06-30 05:12:00,60.0,53.2,30.09,NNW,341,0.0,1.0,78,0.00,,,0.00,WUHU216DAVISVP2,2013-06-30 10:12:00,
2013-06-30 05:17:00,59.9,53.4,30.09,NNW,341,0.0,1.0,79,0.00,,,0.00,WUHU216DAVISVP2,2013-06-30 10:17:00,
2013-06-30 05:22:00,59.8,53.3,30.08,NNW,341,0.0,1.0,79,0.00,,,0.00,WUHU216DAVISVP2,2013-06-30 10:22:00,
2013-06-30 05:27:00,59.6,53.1,30.08,NNW,341,0.0,1.0,79,0.00,,,0.00,WUHU216DAVISVP2,2013-06-30 10:27:00,
2013-06-30 05:32:00,59.4,52.9,30.08,NNW,341,0.0,1.0,79,0.00,,,0.00,WUHU216DAVISVP2,2013-06-30 10:32:00,
2013-06-30 05:37:00,59.2,53.1,30.09,NNW,341,0.0,1.0,80,0.00,,,0.00,WUHU216DAVISVP2,2013-06-30 10:37:00,
2013-06-30 05:42:00,59.1,52.9,30.09,NNW,341,0.0,1.0,80,0.00,,,0.00,WUHU216DAVISVP2,2013-06-30 10:42:00,
2013-06-30 05:47:00,59.0,52.8,30.09,NNW,341,0.0,1.0,80,0.00,,,0.00,WUHU216DAVISVP2,2013-06-30 10:47:00,
2013-06-30 05:52:00,58.9,52.7,30.10,NNW,341,0.0,1.0,80,0.00,,,0.00,WUHU216DAVISVP2,2013-06-30 10:52:00,
2013-06-30 05:57:00,58.7,52.9,30.10,NNW,341,0.0,1.0,81,0.00,,,0.00,WUHU216DAVISVP2,2013-06-30 10:57:00,
2013-06-30 06:02:00,58.6,52.8,30.10,NNW,341,0.0,1.0,81,0.00,,,0.00,WUHU216DAVISVP2,2013-06-30 11:02:00,
2013-06-30 06:07:00,58.5,52.7,30.10,NNW,341,0.0,1.0,81,0.00,,,0.00,WUHU216DAVISVP2,2013-06-30 11:07:00,
2013-06-30 06:12:00,58.4,52.6,30.10,NNW,341,0.0,1.0,81,0.00,,,0.00,WUHU216DAVISVP2,2013-06-30 11:12:00,
2013-06-30 06:17:00,58.3,52.5,30.10,NNW,341,0.0,1.0,81,0.00,,,0.00,WUHU216DAVISVP2,2013-06-30 11:17:00,
2013-06-30 06:22:00,58.3,52.8,30.10,NNW,341,0.0,1.0,82,0.00,,,0.00,WUHU216DAVISVP2,2013-06-30 11:22:00,
2013-06-30 06:27:00,58.4,52.9,30.11,NNW,338,0.0,1.0,82,0.00,,,0.00,WUHU216DAVISVP2,2013-06-30 11:27:00,
2013-06-30 06:32:00,58.5,53.0,30.11,NNW,338,0.0,1.0,82,0.00,,,0.00,WUHU216DAVISVP2,2013-06-30 11:32:00,
2013-06-30 06:37:00,58.6,53.1,30.11,NNW,340,0.0,1.0,82,0.00,,,0.00,WUHU216DAVISVP2,2013-06-30 11:37:00,
2013-06-30 06:42:00,58.8,53.3,30.11,NNW,342,0.0,1.0,82,0.00,,,0.00,WUHU216DAVISVP2,2013-06-30 11:42:00,
2013-06-30 06:47:00,58.9,53.1,30.11,NNW,336,0.0,1.0,81,0.00,,,0.00,WUHU216DAVISVP2,2013-06-30 11:47:00,
2013-06-30 06:52:00,59.0,53.2,30.11,NW,326,0.0,1.0,81,0.00,,,0.00,WUHU216DAVISVP2,2013-06-30 11:52:00,
2013-06-30 06:57:00,59.0,53.2,30.11,NNW,330,0.0,1.0,81,0.00,,,0.00,WUHU216DAVISVP2,2013-06-30 11:57:00,
2013-06-30 07:02:00,59.0,53.2,30.11,NNW,329,0.0,1.0,81,0.00,,,0.00,WUHU216DAVISVP2,2013-06-30 12:02:00,
2013-06-30 07:07:00,59.1,53.3,30.11,NW,319,0.0,1.0,81,0.00,,,0.00,WUHU216DAVISVP2,2013-06-30 12:07:00,
2013-06-30 07:12:00,59.2,53.4,30.12,NW,322,0.0,1.0,81,0.00,,,0.00,WUHU216DAVISVP2,2013-06-30 12:12:00,
2013-06-30 07:17:00,59.4,53.6,30.12,WNW,303,1.0,2.0,81,0.00,,,0.00,WUHU216DAVISVP2,2013-06-30 12:17:00,
2013-06-30 07:22:00,59.5,53.7,30.12,NW,314,0.0,2.0,81,0.00,,,0.00,WUHU216DAVISVP2,2013-06-30 12:22:00,
2013-06-30 07:27:00,59.8,53.7,30.12,NW,314,0.0,2.0,80,0.00,,,0.00,WUHU216DAVISVP2,2013-06-30 12:27:00,
2013-06-30 07:32:00,60.1,54.0,30.12,NW,315,0.0,2.0,80,0.00,,,0.00,WUHU216DAVISVP2,2013-06-30 12:32:00,
2013-06-30 07:37:00,60.4,54.3,30.13,NW,314,0.0,1.0,80,0.00,,,0.00,WUHU216DAVISVP2,2013-06-30 12:37:00,
2013-06-30 07:42:00,60.6,54.1,30.13,NW,313,0.0,1.0,79,0.00,,,0.00,WUHU216DAVISVP2,2013-06-30 12:42:00,
2013-06-30 07:47:00,60.9,54.4,30.13,NW,304,1.0,2.0,79,0.00,,,0.00,WUHU216DAVISVP2,2013-06-30 12:47:00,
2013-06-30 07:52:00,61.0,54.5,30.13,WNW,303,0.0,2.0,79,0.00,,,0.00,WUHU216DAVISVP2,2013-06-30 12:52:00,
2013-06-30 07:57:00,61.4,54.6,30.13,WNW,303,0.0,2.0,78,0.00,,,0.00,WUHU216DAVISVP2,2013-06-30 12:57:00,
2013-06-30 08:02:00,61.8,54.9,30.13,West,276,0.0,2.0,78,0.00,,,0.00,WUHU216DAVISVP2,2013-06-30 13:02:00,
2013-06-30 08:07:00,62.1,54.9,30.13,NW,310,0.0,2.0,77,0.00,,,0.00,WUHU216DAVISVP2,2013-06-30 13:07:00,
2013-06-30 08:12:00,62.3,55.1,30.14,NW,310,0.0,2.0,77,0.00,,,0.00,WUHU216DAVISVP2,2013-06-30 13:12:00,
2013-06-30 08:17:00,62.4,55.2,30.14,WNW,297,0.0,2.0,77,0.00,,,0.00,WUHU216DAVISVP2,2013-06-30 13:17:00,
2013-06-30 08:22:00,62.7,55.5,30.14,NW,307,0.0,2.0,77,0.00,,,0.00,WUHU216DAVISVP2,2013-06-30 13:22:00,
2013-06-30 08:27:00,63.0,55.4,30.14,NW,304,1.0,2.0,76,0.00,,,0.00,WUHU216DAVISVP2,2013-06-30 13:27:00,
2013-06-30 08:32:00,63.3,55.7,30.14,WNW,302,1.0,2.0,76,0.00,,,0.00,WUHU216DAVISVP2,2013-06-30 13:32:00,
2013-06-30 08:37:00,63.5,55.9,30.14,WNW,296,2.0,3.0,76,0.00,,,0.00,WUHU216DAVISVP2,2013-06-30 13:37:00,
2013-06-30 08:42:00,63.6,55.6,30.15,NW,314,0.0,3.0,75,0.00,,,0.00,WUHU216DAVISVP2,2013-06-30 13:42:00,
2013-06-30 08:47:00,63.8,55.8,30.15,NW,319,0.0,3.0,75,0.00,,,0.00,WUHU216DAVISVP2,2013-06-30 13:47:00,
2013-06-30 08:52:00,64.0,55.7,30.15,NW,305,0.0,3.0,74,0.00,,,0.00,WUHU216DAVISVP2,2013-06-30 13:52:00,
2013-06-30 08:57:00,64.4,56.4,30.15,NNW,328,0.0,1.0,75,0.00,,,0.00,WUHU216DAVISVP2,2013-06-30 13:57:00,
2013-06-30 09:02:00,64.8,56.1,30.15,NNW,342,0.0,2.0,73,0.00,,,0.00,WUHU216DAVISVP2,2013-06-30 14:02:00,
2013-06-30 09:07:00,65.3,56.6,30.15,NNW,330,0.0,2.0,73,0.00,,,0.00,WUHU216DAVISVP2,2013-06-30 14:07:00,
2013-06-30 09:12:00,65.8,56.7,30.15,NW,309,0.0,2.0,72,0.00,,,0.00,WUHU216DAVISVP2,2013-06-30 14:12:00,
2013-06-30 09:17:00,66.2,56.7,30.15,NW,310,2.0,2.0,71,0.00,,,0.00,WUHU216DAVISVP2,2013-06-30 14:17:00,
2013-06-30 09:22:00,66.6,57.1,30.15,NW,310,0.0,2.0,71,0.00,,,0.00,WUHU216DAVISVP2,2013-06-30 14:22:00,
2013-06-30 09:27:00,67.1,56.0,30.15,NW,322,0.0,2.0,67,0.00,,,0.00,WUHU216DAVISVP2,2013-06-30 14:27:00,
2013-06-30 09:32:00,67.3,55.7,30.15,NE,47,0.0,2.0,66,0.00,,,0.00,WUHU216DAVISVP2,2013-06-30 14:32:00,
2013-06-30 09:37:00,67.5,55.1,30.15,NE,43,1.0,2.0,64,0.00,,,0.00,WUHU216DAVISVP2,2013-06-30 14:37:00,
2013-06-30 09:42:00,67.6,54.7,30.15,ENE,59,1.0,2.0,63,0.00,,,0.00,WUHU216DAVISVP2,2013-06-30 14:42:00,
2013-06-30 09:47:00,68.0,54.2,30.15,East,86,2.0,2.0,61,0.00,,,0.00,WUHU216DAVISVP2,2013-06-30 14:47:00,
2013-06-30 09:52:00,68.3,54.0,30.15,North,353,1.0,3.0,60,0.00,,,0.00,WUHU216DAVISVP2,2013-06-30 14:52:00,
2013-06-30 09:57:00,68.5,53.3,30.15,NW,323,1.0,4.0,58,0.00,,,0.00,WUHU216DAVISVP2,2013-06-30 14:57:00,
2013-06-30 10:02:00,69.0,52.8,30.15,ENE,58,1.0,4.0,56,0.00,,,0.00,WUHU216DAVISVP2,2013-06-30 15:02:00,
2013-06-30 10:07:00,69.3,54.0,30.15,East,97,1.0,4.0,58,0.00,,,0.00,WUHU216DAVISVP2,2013-06-30 15:07:00,
2013-06-30 10:12:00,69.5,52.2,30.15,ENE,78,2.0,4.0,54,0.00,,,0.00,WUHU216DAVISVP2,2013-06-30 15:12:00,
2013-06-30 10:17:00,69.4,51.6,30.15,ENE,75,4.0,4.0,53,0.00,,,0.00,WUHU216DAVISVP2,2013-06-30 15:17:00,
2013-06-30 10:22:00,69.4,52.1,30.15,ENE,68,1.0,4.0,54,0.00,,,0.00,WUHU216DAVISVP2,2013-06-30 15:22:00,
2013-06-30 10:27:00,69.7,51.4,30.15,ENE,73,1.0,4.0,52,0.00,,,0.00,WUHU216DAVISVP2,2013-06-30 15:27:00,
2013-06-30 10:32:00,69.9,52.6,30.15,ENE,58,1.0,4.0,54,0.00,,,0.00,WUHU216DAVISVP2,2013-06-30 15:32:00,
2013-06-30 10:37:00,70.3,53.5,30.15,North,352,0.0,4.0,55,0.00,,,0.00,WUHU216DAVISVP2,2013-06-30 15:37:00,
2013-06-30 10:42:00,71.0,54.2,30.15,ENE,72,1.0,4.0,55,0.00,,,0.00,WUHU216DAVISVP2,2013-06-30 15:42:00,
2013-06-30 10:47:00,71.3,53.8,30.15,East,85,1.0,4.0,54,0.00,,,0.00,WUHU216DAVISVP2,2013-06-30 15:47:00,
2013-06-30 10:52:00,71.4,53.4,30.15,ENE,71,0.0,4.0,53,0.00,,,0.00,WUHU216DAVISVP2,2013-06-30 15:52:00,
2013-06-30 10:57:00,71.6,52.6,30.15,NW,313,2.0,5.0,51,0.00,,,0.00,WUHU216DAVISVP2,2013-06-30 15:57:00,
2013-06-30 11:02:00,71.2,50.5,30.15,ENE,75,2.0,5.0,48,0.00,,,0.00,WUHU216DAVISVP2,2013-06-30 16:02:00,
2013-06-30 11:07:00,71.0,50.3,30.15,NE,47,2.0,6.0,48,0.00,,,0.00,WUHU216DAVISVP2,2013-06-30 16:07:00,
2013-06-30 11:12:00,71.0,49.7,30.15,East,82,2.0,6.0,47,0.00,,,0.00,WUHU216DAVISVP2,2013-06-30 16:12:00,
2013-06-30 11:17:00,71.3,50.6,30.15,ENE,59,1.0,6.0,48,0.00,,,0.00,WUHU216DAVISVP2,2013-06-30 16:17:00,
2013-06-30 11:22:00,71.9,50.6,30.15,NE,46,0.0,4.0,47,0.00,,,0.00,WUHU216DAVISVP2,2013-06-30 16:22:00,
2013-06-30 11:27:00,72.4,49.2,30.15,ENE,58,1.0,4.0,44,0.00,,,0.00,WUHU216DAVISVP2,2013-06-30 16:27:00,
2013-06-30 11:32:00,72.0,46.2,30.15,NE,44,2.0,3.0,40,0.00,,,0.00,WUHU216DAVISVP2,2013-06-30 16:32:00,
2013-06-30 11:37:00,72.0,46.9,30.15,East,88,2.0,3.0,41,0.00,,,0.00,WUHU216DAVISVP2,2013-06-30 16:37:00,
2013-06-30 11:42:00,72.2,46.4,30.16,North,354,1.0,5.0,40,0.00,,,0.00,WUHU216DAVISVP2,2013-06-30 16:42:00,
2013-06-30 11:47:00,72.6,46.9,30.16,NW,326,1.0,5.0,40,0.00,,,0.00,WUHU216DAVISVP2,2013-06-30 16:47:00,
2013-06-30 11:52:00,73.1,47.3,30.16,SE,131,1.0,5.0,40,0.00,,,0.00,WUHU216DAVISVP2,2013-06-30 16:52:00,
2013-06-30 11:57:00,73.4,46.8,30.16,NNW,340,1.0,5.0,39,0.00,,,0.00,WUHU216DAVISVP2,2013-06-30 16:57:00,
2013-06-30 12:02:00,73.1,47.2,30.16,NE,56,1.0,5.0,40,0.00,,,0.00,WUHU216DAVISVP2,2013-06-30 17:02:00,
2013-06-30 12:07:00,73.0,45.8,30.16,ENE,64,1.0,5.0,38,0.00,,,0.00,WUHU216DAVISVP2,2013-06-30 17:07:00,
2013-06-30 12:12:00,73.5,48.9,30.16,ESE,103,1.0,5.0,42,0.00,,,0.00,WUHU216DAVISVP2,2013-06-30 17:12:00,
2013-06-30 12:17:00,74.0,46.6,30.16,NNE,20,0.0,5.0,38,0.00,,,0.00,WUHU216DAVISVP2,2013-06-30 17:17:00,
2013-06-30 12:22:00,73.7,47.8,30.16,NE,44,0.0,6.0,40,0.00,,,0.00,WUHU216DAVISVP2,2013-06-30 17:22:00,
2013-06-30 12:27:00,73.9,45.8,30.16,East,82,2.0,7.0,37,0.00,,,0.00,WUHU216DAVISVP2,2013-06-30 17:27:00,
2013-06-30 12:32:00,73.2,46.8,30.16,NNE,27,1.0,11.0,39,0.00,,,0.00,WUHU216DAVISVP2,2013-06-30 17:32:00,
2013-06-30 12:37:00,73.3,46.7,30.16,ENE,78,1.0,11.0,39,0.00,,,0.00,WUHU216DAVISVP2,2013-06-30 17:37:00,
2013-06-30 12:42:00,73.6,44.8,30.16,NE,52,2.0,11.0,36,0.00,,,0.00,WUHU216DAVISVP2,2013-06-30 17:42:00,
2013-06-30 12:47:00,73.6,46.3,30.16,ENE,70,1.0,7.0,38,0.00,,,0.00,WUHU216DAVISVP2,2013-06-30 17:47:00,
2013-06-30 12:52:00,73.5,46.2,30.16,East,83,1.0,6.0,38,0.00,,,0.00,WUHU216DAVISVP2,2013-06-30 17:52:00,
2013-06-30 12:57:00,73.6,47.1,30.16,NE,34,0.0,6.0,39,0.00,,,0.00,WUHU216DAVISVP2,2013-06-30 17:57:00,
2013-06-30 13:02:00,73.9,47.3,30.16,ENE,68,1.0,6.0,39,0.00,,,0.00,WUHU216DAVISVP2,2013-06-30 18:02:00,
2013-06-30 13:07:00,74.0,45.9,30.16,ENE,66,1.0,6.0,37,0.00,,,0.00,WUHU216DAVISVP2,2013-06-30 18:07:00,
2013-06-30 13:12:00,74.1,45.3,30.16,East,94,2.0,4.0,36,0.00,,,0.00,WUHU216DAVISVP2,2013-06-30 18:12:00,
2013-06-30 13:17:00,74.1,46.0,30.16,East,79,4.0,4.0,37,0.00,,,0.00,WUHU216DAVISVP2,2013-06-30 18:17:00,
2013-06-30 13:22:00,74.3,44.7,30.16,East,83,2.0,7.0,35,0.00,,,0.00,WUHU216DAVISVP2,2013-06-30 18:22:00,
2013-06-30 13:27:00,74.1,46.7,30.16,East,101,1.0,7.0,38,0.00,,,0.00,WUHU216DAVISVP2,2013-06-30 18:27:00,
2013-06-30 13:32:00,75.1,46.9,30.16,NNW,328,1.0,7.0,37,0.00,,,0.00,WUHU216DAVISVP2,2013-06-30 18:32:00,
2013-06-30 13:37:00,75.0,46.8,30.16,East,92,2.0,7.0,37,0.00,,,0.00,WUHU216DAVISVP2,2013-06-30 18:37:00,
2013-06-30 13:42:00,75.9,48.3,30.16,ENE,72,3.0,4.0,38,0.00,,,0.00,WUHU216DAVISVP2,2013-06-30 18:42:00,
2013-06-30 13:47:00,75.7,46.8,30.16,NE,54,2.0,4.0,36,0.00,,,0.00,WUHU216DAVISVP2,2013-06-30 18:47:00,
2013-06-30 13:52:00,75.7,46.7,30.16,East,96,4.0,4.0,36,0.00,,,0.00,WUHU216DAVISVP2,2013-06-30 18:52:00,
2013-06-30 13:57:00,75.5,45.8,30.16,NE,43,1.0,4.0,35,0.00,,,0.00,WUHU216DAVISVP2,2013-06-30 18:57:00,
2013-06-30 14:02:00,75.8,46.0,30.16,East,91,1.0,4.0,35,0.00,,,0.00,WUHU216DAVISVP2,2013-06-30 19:02:00,
2013-06-30 14:07:00,76.2,46.4,30.16,West,281,4.0,4.0,35,0.00,,,0.00,WUHU216DAVISVP2,2013-06-30 19:07:00,
2013-06-30 14:12:00,76.1,46.3,30.16,NE,55,1.0,7.0,35,0.00,,,0.00,WUHU216DAVISVP2,2013-06-30 19:12:00,
2013-06-30 14:17:00,76.0,45.4,30.16,ESE,120,2.0,7.0,34,0.00,,,0.00,WUHU216DAVISVP2,2013-06-30 19:17:00,
2013-06-30 14:22:00,75.8,46.8,30.16,ENE,68,1.0,7.0,36,0.00,,,0.00,WUHU216DAVISVP2,2013-06-30 19:22:00,
2013-06-30 14:27:00,76.0,45.4,30.16,East,79,2.0,5.0,34,0.00,,,0.00,WUHU216DAVISVP2,2013-06-30 19:27:00,
2013-06-30 14:32:00,76.3,45.7,30.16,SE,134,2.0,5.0,34,0.00,,,0.00,WUHU216DAVISVP2,2013-06-30 19:32:00,
2013-06-30 14:37:00,76.7,44.5,30.16,ESE,117,3.0,5.0,32,0.00,,,0.00,WUHU216DAVISVP2,2013-06-30 19:37:00,
2013-06-30 14:42:00,76.4,47.3,30.16,NNE,27,2.0,5.0,36,0.00,,,0.00,WUHU216DAVISVP2,2013-06-30 19:42:00,
2013-06-30 14:47:00,76.9,47.2,30.16,NW,316,1.0,5.0,35,0.00,,,0.00,WUHU216DAVISVP2,2013-06-30 19:47:00,
2013-06-30 14:52:00,76.7,45.4,30.15,East,79,2.0,9.0,33,0.00,,,0.00,WUHU216DAVISVP2,2013-06-30 19:52:00,
2013-06-30 14:57:00,76.8,45.4,30.15,NW,317,1.0,9.0,33,0.00,,,0.00,WUHU216DAVISVP2,2013-06-30 19:57:00,
2013-06-30 15:02:00,77.4,46.7,30.15,West,279,2.0,9.0,34,0.00,,,0.00,WUHU216DAVISVP2,2013-06-30 20:02:00,
2013-06-30 15:07:00,77.5,46.1,30.15,NE,46,2.0,9.0,33,0.00,,,0.00,WUHU216DAVISVP2,2013-06-30 20:07:00,
2013-06-30 15:12:00,77.1,46.4,30.15,ENE,59,1.0,5.0,34,0.00,,,0.00,WUHU216DAVISVP2,2013-06-30 20:12:00,
2013-06-30 15:17:00,76.8,44.5,30.15,ENE,72,3.0,7.0,32,0.00,,,0.00,WUHU216DAVISVP2,2013-06-30 20:17:00,
2013-06-30 15:22:00,76.3,45.9,30.15,ESE,121,1.0,7.0,34,0.00,,,0.00,WUHU216DAVISVP2,2013-06-30 20:22:00,
2013-06-30 15:27:00,77.0,46.3,30.15,East,100,1.0,7.0,34,0.00,,,0.00,WUHU216DAVISVP2,2013-06-30 20:27:00,
2013-06-30 15:32:00,77.5,46.8,30.15,NNE,15,1.0,7.0,34,0.00,,,0.00,WUHU216DAVISVP2,2013-06-30 20:32:00,
2013-06-30 15:37:00,77.8,47.0,30.15,ENE,72,0.0,4.0,34,0.00,,,0.00,WUHU216DAVISVP2,2013-06-30 20:37:00,
2013-06-30 15:42:00,78.4,47.6,30.15,ENE,70,1.0,4.0,34,0.00,,,0.00,WUHU216DAVISVP2,2013-06-30 20:42:00,
2013-06-30 15:47:00,78.2,46.7,30.15,North,352,1.0,6.0,33,0.00,,,0.00,WUHU216DAVISVP2,2013-06-30 20:47:00,
2013-06-30 15:52:00,77.6,45.2,30.15,East,81,1.0,6.0,32,0.00,,,0.00,WUHU216DAVISVP2,2013-06-30 20:52:00,
2013-06-30 15:57:00,77.7,47.7,30.15,WNW,284,0.0,6.0,35,0.00,,,0.00,WUHU216DAVISVP2,2013-06-30 20:57:00,
2013-06-30 16:02:00,77.8,47.0,30.15,East,87,2.0,7.0,34,0.00,,,0.00,WUHU216DAVISVP2,2013-06-30 21:02:00,
2013-06-30 16:07:00,77.5,46.8,30.15,East,89,3.0,8.0,34,0.00,,,0.00,WUHU216DAVISVP2,2013-06-30 21:07:00,
2013-06-30 16:12:00,77.8,47.8,30.15,WNW,287,3.0,8.0,35,0.00,,,0.00,WUHU216DAVISVP2,2013-06-30 21:12:00,
2013-06-30 16:17:00,78.3,47.5,30.15,East,83,0.0,8.0,34,0.00,,,0.00,WUHU216DAVISVP2,2013-06-30 21:17:00,
2013-06-30 16:22:00,78.6,48.5,30.15,ESE,103,0.0,8.0,35,0.00,,,0.00,WUHU216DAVISVP2,2013-06-30 21:22:00,
2013-06-30 16:27:00,79.0,48.9,30.14,ESE,117,1.0,4.0,35,0.00,,,0.00,WUHU216DAVISVP2,2013-06-30 21:27:00,
2013-06-30 16:32:00,79.1,48.2,30.14,West,276,4.0,5.0,34,0.00,,,0.00,WUHU216DAVISVP2,2013-06-30 21:32:00,
2013-06-30 16:37:00,79.0,48.1,30.14,NE,54,0.0,5.0,34,0.00,,,0.00,WUHU216DAVISVP2,2013-06-30 21:37:00,
2013-06-30 16:42:00,78.6,47.7,30.14,NE,41,0.0,5.0,34,0.00,,,0.00,WUHU216DAVISVP2,2013-06-30 21:42:00,
2013-06-30 16:47:00,78.5,48.6,30.14,NE,49,0.0,5.0,35,0.00,,,0.00,WUHU216DAVISVP2,2013-06-30 21:47:00,
2013-06-30 16:52:00,78.7,49.5,30.14,NNW,341,1.0,4.0,36,0.00,,,0.00,WUHU216DAVISVP2,2013-06-30 21:52:00,
2013-06-30 16:57:00,78.8,49.5,30.14,East,81,2.0,4.0,36,0.00,,,0.00,WUHU216DAVISVP2,2013-06-30 21:57:00,
2013-06-30 17:02:00,78.8,49.5,30.14,ENE,67,1.0,4.0,36,0.00,,,0.00,WUHU216DAVISVP2,2013-06-30 22:02:00,
2013-06-30 17:07:00,79.1,49.1,30.14,East,86,2.0,4.0,35,0.00,,,0.00,WUHU216DAVISVP2,2013-06-30 22:07:00,
2013-06-30 17:12:00,78.5,49.3,30.14,ENE,68,1.0,4.0,36,0.00,,,0.00,WUHU216DAVISVP2,2013-06-30 22:12:00,
2013-06-30 17:17:00,78.7,49.5,30.14,NE,36,1.0,4.0,36,0.00,,,0.00,WUHU216DAVISVP2,2013-06-30 22:17:00,
2013-06-30 17:22:00,78.8,50.3,30.14,ENE,58,1.0,4.0,37,0.00,,,0.00,WUHU216DAVISVP2,2013-06-30 22:22:00,
2013-06-30 17:27:00,79.0,49.0,30.14,ENE,73,1.0,4.0,35,0.00,,,0.00,WUHU216DAVISVP2,2013-06-30 22:27:00,
2013-06-30 17:32:00,78.8,51.0,30.14,NNW,348,1.0,3.0,38,0.00,,,0.00,WUHU216DAVISVP2,2013-06-30 22:32:00,
2013-06-30 17:37:00,79.7,50.3,30.14,North,7,2.0,3.0,36,0.00,,,0.00,WUHU216DAVISVP2,2013-06-30 22:37:00,
2013-06-30 17:42:00,79.5,49.3,30.14,North,353,2.0,4.0,35,0.00,,,0.00,WUHU216DAVISVP2,2013-06-30 22:42:00,
2013-06-30 17:47:00,79.2,49.0,30.14,NNW,334,1.0,4.0,35,0.00,,,0.00,WUHU216DAVISVP2,2013-06-30 22:47:00,
2013-06-30 17:52:00,79.0,49.6,30.15,WNW,293,1.0,4.0,36,0.00,,,0.00,WUHU216DAVISVP2,2013-06-30 22:52:00,
2013-06-30 17:57:00,79.2,49.0,30.15,NNW,342,1.0,4.0,35,0.00,,,0.00,WUHU216DAVISVP2,2013-06-30 22:57:00,
2013-06-30 18:02:00,79.1,49.0,30.15,NW,325,1.0,4.0,35,0.00,,,0.00,WUHU216DAVISVP2,2013-06-30 23:02:00,
2013-06-30 18:07:00,78.9,49.5,30.15,West,269,1.0,3.0,36,0.00,,,0.00,WUHU216DAVISVP2,2013-06-30 23:07:00,
2013-06-30 18:12:00,78.4,49.1,30.15,NE,54,1.0,5.0,36,0.00,,,0.00,WUHU216DAVISVP2,2013-06-30 23:12:00,
2013-06-30 18:17:00,77.8,49.3,30.15,ENE,68,1.0,5.0,37,0.00,,,0.00,WUHU216DAVISVP2,2013-06-30 23:17:00,
2013-06-30 18:22:00,78.0,49.5,30.15,NNE,16,1.0,5.0,37,0.00,,,0.00,WUHU216DAVISVP2,2013-06-30 23:22:00,
2013-06-30 18:27:00,78.1,50.3,30.15,WNW,288,4.0,5.0,38,0.00,,,0.00,WUHU216DAVISVP2,2013-06-30 23:27:00,
2013-06-30 18:32:00,78.1,50.3,30.15,NNE,31,1.0,5.0,38,0.00,,,0.00,WUHU216DAVISVP2,2013-06-30 23:32:00,
2013-06-30 18:37:00,77.8,50.0,30.14,NW,316,1.0,5.0,38,0.00,,,0.00,WUHU216DAVISVP2,2013-06-30 23:37:00,
2013-06-30 18:42:00,77.9,50.8,30.15,NNE,25,1.0,5.0,39,0.00,,,0.00,WUHU216DAVISVP2,2013-06-30 23:42:00,
2013-06-30 18:47:00,77.7,50.0,30.15,ESE,122,2.0,3.0,38,0.00,,,0.00,WUHU216DAVISVP2,2013-06-30 23:47:00,
2013-06-30 18:52:00,77.6,50.6,30.15,ENE,65,0.0,3.0,39,0.00,,,0.00,WUHU216DAVISVP2,2013-06-30 23:52:00,
2013-06-30 18:57:00,77.5,50.5,30.15,ENE,69,1.0,2.0,39,0.00,,,0.00,WUHU216DAVISVP2,2013-06-30 23:57:00,
2013-06-30 19:02:00,77.3,49.6,30.14,ENE,64,2.0,4.0,38,0.00,,,0.00,WUHU216DAVISVP2,2013-07-01 00:02:00,
2013-06-30 19:07:00,76.9,49.2,30.14,NW,309,1.0,4.0,38,0.00,,,0.00,WUHU216DAVISVP2,2013-07-01 00:07:00,
2013-06-30 19:12:00,77.0,49.3,30.15,ENE,59,1.0,4.0,38,0.00,,,0.00,WUHU216DAVISVP2,2013-07-01 00:12:00,
2013-06-30 19:17:00,76.9,49.2,30.15,ESE,120,0.0,4.0,38,0.00,,,0.00,WUHU216DAVISVP2,2013-07-01 00:17:00,
2013-06-30 19:22:00,76.9,49.4,30.15,SSE,155,0.0,3.0,38,0.00,,,0.00,WUHU216DAVISVP2,2013-07-01 00:22:00,
2013-06-30 19:27:00,77.0,48.7,30.15,ESE,117,0.0,3.0,37,0.00,,,0.00,WUHU216DAVISVP2,2013-07-01 00:27:00,
2013-06-30 19:32:00,77.0,48.7,30.15,ENE,64,1.0,1.0,37,0.00,,,0.00,WUHU216DAVISVP2,2013-07-01 00:32:00,
2013-06-30 19:37:00,76.6,49.7,30.15,NE,37,1.0,4.0,39,0.00,,,0.00,WUHU216DAVISVP2,2013-07-01 00:37:00,
2013-06-30 19:42:00,76.5,48.9,30.15,NE,50,0.0,4.0,38,0.00,,,0.00,WUHU216DAVISVP2,2013-07-01 00:42:00,
2013-06-30 19:47:00,76.5,49.7,30.15,NE,51,0.0,4.0,39,0.00,,,0.00,WUHU216DAVISVP2,2013-07-01 00:47:00,
2013-06-30 19:52:00,76.3,49.4,30.15,NNE,30,0.0,1.0,39,0.00,,,0.00,WUHU216DAVISVP2,2013-07-01 00:52:00,
2013-06-30 19:57:00,76.3,49.4,30.15,NE,44,0.0,1.0,39,0.00,,,0.00,WUHU216DAVISVP2,2013-07-01 00:57:00,
2013-06-30 20:02:00,76.3,49.4,30.15,NNE,19,0.0,1.0,39,0.00,,,0.00,WUHU216DAVISVP2,2013-07-01 01:02:00,
2013-06-30 20:07:00,76.1,49.3,30.15,ENE,60,0.0,3.0,39,0.00,,,0.00,WUHU216DAVISVP2,2013-07-01 01:07:00,
2013-06-30 20:12:00,75.8,49.7,30.15,NE,34,0.0,3.0,40,0.00,,,0.00,WUHU216DAVISVP2,2013-07-01 01:12:00,
2013-06-30 20:17:00,75.4,50.0,30.15,NNE,33,0.0,3.0,41,0.00,,,0.00,WUHU216DAVISVP2,2013-07-01 01:17:00,
2013-06-30 20:22:00,75.0,49.6,30.15,NNE,33,0.0,3.0,41,0.00,,,0.00,WUHU216DAVISVP2,2013-07-01 01:22:00,
2013-06-30 20:27:00,74.6,49.9,30.15,NE,36,0.0,1.0,42,0.00,,,0.00,WUHU216DAVISVP2,2013-07-01 01:27:00,
2013-06-30 20:32:00,74.3,50.3,30.15,NE,35,0.0,1.0,43,0.00,,,0.00,WUHU216DAVISVP2,2013-07-01 01:32:00,
2013-06-30 20:37:00,73.9,50.6,30.15,NE,36,0.0,1.0,44,0.00,,,0.00,WUHU216DAVISVP2,2013-07-01 01:37:00,
2013-06-30 20:42:00,73.5,50.9,30.15,NE,36,0.0,1.0,45,0.00,,,0.00,WUHU216DAVISVP2,2013-07-01 01:42:00,
2013-06-30 20:47:00,73.1,50.5,30.15,NE,36,0.0,0.0,45,0.00,,,0.00,WUHU216DAVISVP2,2013-07-01 01:47:00,
2013-06-30 20:52:00,72.7,51.3,30.15,NE,36,0.0,0.0,47,0.00,,,0.00,WUHU216DAVISVP2,2013-07-01 01:52:00,
2013-06-30 20:57:00,72.2,50.9,30.15,NE,36,0.0,0.0,47,0.00,,,0.00,WUHU216DAVISVP2,2013-07-01 01:57:00,
2013-06-30 21:02:00,71.7,51.6,30.15,NE,36,0.0,0.0,49,0.00,,,0.00,WUHU216DAVISVP2,2013-07-01 02:02:00,
2013-06-30 21:07:00,71.2,51.7,30.15,NE,36,0.0,0.0,50,0.00,,,0.00,WUHU216DAVISVP2,2013-07-01 02:07:00,
2013-06-30 21:12:00,70.7,51.8,30.15,NE,36,0.0,0.0,51,0.00,,,0.00,WUHU216DAVISVP2,2013-07-01 02:12:00,
2013-06-30 21:17:00,70.2,51.8,30.15,NE,36,0.0,0.0,52,0.00,,,0.00,WUHU216DAVISVP2,2013-07-01 02:17:00,
2013-06-30 21:22:00,69.7,51.9,30.15,NE,36,0.0,0.0,53,0.00,,,0.00,WUHU216DAVISVP2,2013-07-01 02:22:00,
2013-06-30 21:27:00,69.4,51.6,30.16,NE,36,0.0,0.0,53,0.00,,,0.00,WUHU216DAVISVP2,2013-07-01 02:27:00,
2013-06-30 21:32:00,69.1,51.8,30.16,NE,36,0.0,0.0,54,0.00,,,0.00,WUHU216DAVISVP2,2013-07-01 02:32:00,
2013-06-30 21:37:00,68.8,51.5,30.16,NE,36,0.0,0.0,54,0.00,,,0.00,WUHU216DAVISVP2,2013-07-01 02:37:00,
2013-06-30 21:42:00,68.5,51.2,30.16,NE,36,0.0,0.0,54,0.00,,,0.00,WUHU216DAVISVP2,2013-07-01 02:42:00,
2013-06-30 21:47:00,68.2,51.5,30.17,NE,35,0.0,0.0,55,0.00,,,0.00,WUHU216DAVISVP2,2013-07-01 02:47:00,
2013-06-30 21:52:00,67.9,51.3,30.17,NE,35,0.0,0.0,55,0.00,,,0.00,WUHU216DAVISVP2,2013-07-01 02:52:00,
2013-06-30 21:57:00,67.6,51.5,30.17,NE,36,0.0,0.0,56,0.00,,,0.00,WUHU216DAVISVP2,2013-07-01 02:57:00,
2013-06-30 22:02:00,67.3,51.7,30.17,NE,36,0.0,0.0,57,0.00,,,0.00,WUHU216DAVISVP2,2013-07-01 03:02:00,
2013-06-30 22:07:00,66.9,51.3,30.17,NE,36,0.0,0.0,57,0.00,,,0.00,WUHU216DAVISVP2,2013-07-01 03:07:00,
2013-06-30 22:12:00,66.7,51.6,30.17,NE,36,0.0,0.0,58,0.00,,,0.00,WUHU216DAVISVP2,2013-07-01 03:12:00,
2013-06-30 22:17:00,66.5,51.4,30.18,NE,35,0.0,0.0,58,0.00,,,0.00,WUHU216DAVISVP2,2013-07-01 03:17:00,
2013-06-30 22:22:00,66.2,51.6,30.18,NE,35,0.0,0.0,59,0.00,,,0.00,WUHU216DAVISVP2,2013-07-01 03:22:00,
2013-06-30 22:27:00,66.0,51.9,30.18,NE,35,0.0,0.0,60,0.00,,,0.00,WUHU216DAVISVP2,2013-07-01 03:27:00,
2013-06-30 22:32:00,65.8,51.7,30.18,NE,36,0.0,0.0,60,0.00,,,0.00,WUHU216DAVISVP2,2013-07-01 03:32:00,
2013-06-30 22:37:00,65.6,51.9,30.18,NE,36,0.0,0.0,61,0.00,,,0.00,WUHU216DAVISVP2,2013-07-01 03:37:00,
2013-06-30 22:42:00,65.4,51.8,30.18,NE,35,0.0,0.0,61,0.00,,,0.00,WUHU216DAVISVP2,2013-07-01 03:42:00,
2013-06-30 22:47:00,65.2,52.0,30.19,NE,36,0.0,0.0,62,0.00,,,0.00,WUHU216DAVISVP2,2013-07-01 03:47:00,
2013-06-30 22:52:00,65.1,51.9,30.19,NE,35,0.0,0.0,62,0.00,,,0.00,WUHU216DAVISVP2,2013-07-01 03:52:00,
2013-06-30 22:57:00,64.9,51.3,30.19,NE,36,0.0,0.0,61,0.00,,,0.00,WUHU216DAVISVP2,2013-07-01 03:57:00,
2013-06-30 23:01:00,64.8,51.2,30.19,NE,35,0.0,0.0,61,0.00,,,0.00,WUHU216DAVISVP2,2013-07-01 04:01:00,
2013-06-30 23:02:00,64.7,51.1,30.19,NE,35,0.0,0.0,61,0.00,,,0.00,WUHU216DAVISVP2,2013-07-01 04:02:00,
2013-06-30 23:07:00,64.5,51.8,30.19,NE,35,0.0,0.0,63,0.00,,,0.00,WUHU216DAVISVP2,2013-07-01 04:07:00,
2013-06-30 23:12:00,64.5,52.0,30.19,NE,36,0.0,0.0,64,0.00,,,0.00,WUHU216DAVISVP2,2013-07-01 04:12:00,
2013-06-30 23:17:00,64.4,51.5,30.19,NE,36,0.0,0.0,63,0.00,,,0.00,WUHU216DAVISVP2,2013-07-01 04:17:00,
2013-06-30 23:22:00,64.3,51.6,30.19,NE,35,0.0,0.0,63,0.00,,,0.00,WUHU216DAVISVP2,2013-07-01 04:22:00,
2013-06-30 23:27:00,64.1,51.8,30.19,NE,36,0.0,0.0,64,0.00,,,0.00,WUHU216DAVISVP2,2013-07-01 04:27:00,
2013-06-30 23:32:00,63.9,51.6,30.19,NE,36,0.0,0.0,64,0.00,,,0.00,WUHU216DAVISVP2,2013-07-01 04:32:00,
2013-06-30 23:37:00,63.6,51.8,30.19,NE,35,0.0,0.0,65,0.00,,,0.00,WUHU216DAVISVP2,2013-07-01 04:37:00,
2013-06-30 23:42:00,63.7,52.3,30.19,NE,36,0.0,0.0,66,0.00,,,0.00,WUHU216DAVISVP2,2013-07-01 04:42:00,
2013-06-30 23:47:00,63.7,51.9,30.19,NE,35,0.0,0.0,65,0.00,,,0.00,WUHU216DAVISVP2,2013-07-01 04:47:00,
2013-06-30 23:52:00,63.5,51.5,30.19,NE,36,0.0,0.0,65,0.00,,,0.00,WUHU216DAVISVP2,2013-07-01 04:52:00,
2013-06-30 23:57:00,63.4,51.8,30.19,NE,36,0.0,0.0,66,0.00,,,0.00,WUHU216DAVISVP2,2013-07-01 04:57:00,